Location: Mainz-Finthen
(49.9906°N, 8.1713°E)
Time: 03:49:01
(UTC+00:00)

ITUPSAT 1 - Visible Passes

Search period start: 29 November 2021 00:00
Search period end: 09 December 2021 00:00
Orbit: 701 x 712 km, 98.6° (Epoch: 28 November)

Date Brightness Start Highest point End Pass type
(mag) Time Alt. Az. Time Alt. Az. Time Alt. Az.
29 Nov ? 05:19:48 10° SE 05:24:07 35° ENE 05:28:28 10° N visible
30 Nov ? 04:28:27 10° E 04:30:57 14° NE 04:33:29 10° NNE visible
30 Nov ? 06:03:14 10° SSE 06:08:01 81° ENE 06:12:50 10° NNW visible
01 Dec ? 05:10:25 10° ESE 05:14:32 29° ENE 05:18:40 10° N visible
02 Dec ? 04:19:37 10° ENE 04:21:27 12° NE 04:23:17 10° NNE visible
02 Dec ? 05:53:38 10° SSE 05:58:21 67° ENE 06:03:08 10° N visible
03 Dec ? 05:01:05 10° ESE 05:04:56 25° ENE 05:08:50 10° N visible
04 Dec ? 04:11:27 10° NE 04:11:57 10° NE 04:12:26 10° NE visible
04 Dec ? 05:44:04 10° SE 05:48:43 55° ENE 05:53:25 10° N visible
05 Dec ? 04:51:49 10° ESE 04:55:23 21° ENE 04:58:58 10° N visible
05 Dec ? 06:28:01 10° S 06:32:45 63° WSW 06:37:32 10° NNW visible
06 Dec ? 05:34:32 10° SE 05:39:05 45° ENE 05:43:40 10° N visible
07 Dec ? 04:42:38 10° E 04:45:49 18° ENE 04:49:02 10° NNE visible
07 Dec ? 06:18:16 10° S 06:23:03 77° WSW 06:27:53 10° NNW visible
08 Dec ? 05:25:04 10° SE 05:29:29 38° ENE 05:33:54 10° N visible
